Tracking 22079 objects as of 5-Dec-2020
HD Live streaming from Space Station
objects crossing your sky now

BEIDOU 3M18

Track BEIDOU 3M18 now!
BEIDOU 3M18 is classified as:


NORAD ID: 43707
Int'l Code: 2018-093B
Perigee: 21,509.0 km
Apogee: 21,561.2 km
Inclination: 54.6 °
Period: 773.2 minutes
Semi major axis: 27906 km
RCS: Unknown
Launch date: November 18, 2018
Source: People's Republic of China (PRC)
Launch site: Xichang Space Center, China (XSC)
aabbcc
Your satellite tracking list
Your tracking list is empty




NASA's NSSDC Master Catalog

Two Line Element Set (TLE):
1 43707U 18093B   20339.36130392  .00000017  00000-0  00000-0 0  9994
2 43707  54.5661 251.1318 0009343 297.5164 245.1389  1.86232138 13891
Source of the keplerian elements: AFSPC